392P/LINEAR (2020)

Japanese version
Home page
Updated on July 8, 2020

---------------------------------------------------------------------

* Profile

Designation 392P/2019 U3
Recovery Date October 26, 2019
Magnitude 19.2 mag
Recoverer K. Sarneczky (Konkoly Observatory)

* Pictures

* Orbital Elements

Epoch 2020 Mar. 12.0 TT = JDT 2458920.5
T 2020 Mar. 31.84836 TT                                 Rudenko
q   1.9502374            (2000.0)            P               Q
n   0.06461661     Peri.   71.99625     -0.11839124     -0.99230830
a   6.1504461      Node    24.88844     +0.87543246     -0.12149581
e   0.6829112      Incl.    4.92937     +0.46861661     -0.02372778
P  15.3
From 398 observations 1989 Nov. 22-2020 Feb. 12, mean residual 0".5.

* Magnitudes Graph

        m1 = 14.5 + 5 log d + 10.0 log r

---------------------------------------------------------------------

The orbital elements are published on M.P.E.C. 2020-F67.
The magnitudes graphs are made with Comet for Windows.

---------------------------------------------------------------------

Copyright(C) Seiichi Yoshida (comet@aerith.net). All rights reserved.